Location: Hope
(40.9110°N, 74.9680°W)
Time: 12:34:37
(UTC-05:00)

ISS - Visible Passes

Search period start: 23 January 2019 00:00
Search period end: 02 February 2019 00:00
Orbit: 404 x 410 km, 51.6° (Epoch: 24 January)

Date Brightness Start Highest point End Pass type
(mag) Time Alt. Az. Time Alt. Az. Time Alt. Az.
23 Jan -3.6 18:48:32 10° WSW 18:51:48 61° NNW 18:52:01 59° N visible
24 Jan -3.8 17:57:10 10° SW 18:00:26 72° SE 18:02:58 16° ENE visible
24 Jan -0.9 19:34:39 10° WNW 19:35:42 16° WNW 19:35:42 16° WNW visible
25 Jan -2.4 18:42:46 10° W 18:45:43 30° NNW 18:46:34 26° N visible
26 Jan -3.1 17:51:02 10° WSW 17:54:13 47° NNW 17:57:23 10° NE visible
26 Jan -0.9 19:29:19 10° NW 19:30:06 13° NW 19:30:06 13° NW visible
27 Jan -1.7 18:37:17 10° WNW 18:39:44 19° NNW 18:40:51 16° N visible
28 Jan -2.1 17:45:18 10° W 17:48:06 25° NNW 17:50:56 10° NE visible
28 Jan -0.8 19:23:53 10° NNW 19:24:17 11° NNW 19:24:17 11° NNW visible
29 Jan -1.4 18:31:54 10° NW 18:33:48 14° N 18:34:57 12° NNE visible
30 Jan -1.6 17:39:50 10° WNW 17:42:05 17° NNW 17:44:21 10° NNE visible
30 Jan -0.9 19:17:55 10° NNW 19:18:20 11° NNW 19:18:20 11° NNW visible
31 Jan -1.4 18:26:16 10° NNW 18:27:53 13° N 18:28:59 11° NNE visible
01 Feb -1.2 19:11:29 10° NNW 19:12:22 14° NNW 19:12:22 14° NNW visible
